STARLINK-35849

Last updated on Sun Dec 07 2025 00:02:05 GMT+0000 (Coordinated Universal Time)

1 66348U 25254A 25340.58335648 -.00126297 00000+0 -22957-2 0 9996 2 66348 53.1601 306.0400 0001015 78.6708 331.6326 15.49357112 5930
UTC large
Height (km)
Speed (km/s)
/
Latitude / Longitude
Inclination (degrees)
Orbital Period (minutes)
Azimuth
Elevation
Range (km)
Doppler Factor

Next 0 passes for location: London (51.5072 / 0.1276)

Sorry there are no passes over London.